Location: Unspecified
(48.7670°N, 0.0000°E)
Time: 19:04:17
(UTC+00:00)

Transit 2A - Visible Passes

Search period start: 07 August 2020 00:00
Search period end: 17 August 2020 00:00
Orbit: 591 x 967 km, 66.7° (Epoch: 07 August)

Date Brightness Start Highest point End Pass type
(mag) Time Alt. Az. Time Alt. Az. Time Alt. Az.
07 Aug 9.2 00:51:57 10° NW 00:55:36 16° N 00:59:19 10° NNE visible
07 Aug 9.2 02:37:05 10° NNW 02:41:28 19° NNE 02:45:49 10° ENE visible
07 Aug 6.3 20:46:03 10° SSW 20:51:50 70° ESE 20:58:07 10° NE visible
07 Aug 8.1 22:30:14 10° W 22:35:39 34° NW 22:41:24 10° NNE visible
08 Aug 9.2 00:17:04 10° NW 00:20:57 17° NNW 00:24:53 10° NNE visible
08 Aug 9.3 02:02:48 10° NNW 02:06:50 17° NNE 02:10:52 10° NE visible
08 Aug 8.3 03:46:12 10° NNW 03:52:04 36° NE 03:57:44 10° ESE visible
08 Aug 6.5 20:12:09 10° S 20:17:46 52° ESE 20:23:50 10° NE visible
08 Aug 7.7 21:55:37 10° WSW 22:01:15 41° NW 22:07:15 10° NNE visible
08 Aug 9.1 23:42:08 10° WNW 23:46:18 18° NNW 23:50:34 10° NNE visible
09 Aug 9.3 01:28:25 10° NNW 01:32:11 16° N 01:35:58 10° NE visible
09 Aug 8.6 03:12:04 10° NNW 03:17:37 30° NE 03:23:01 10° E visible
09 Aug 7.3 21:21:06 10° WSW 21:26:55 52° NW 21:33:08 10° NNE visible
09 Aug 9.0 23:07:12 10° WNW 23:11:42 20° NNW 23:16:19 10° NNE visible
10 Aug 9.4 00:53:54 10° NNW 00:57:31 15° N 01:01:07 10° NE visible
10 Aug 8.8 02:37:55 10° NNW 02:43:08 25° NNE 02:48:13 10° E visible
10 Aug 6.8 20:46:44 10° SW 20:52:38 66° NW 20:58:58 10° NNE visible
10 Aug 8.8 22:32:18 10° WNW 22:37:08 23° NNW 22:42:08 10° NNE visible
11 Aug 9.4 00:19:16 10° NW 00:22:49 15° N 00:26:25 10° NNE visible
11 Aug 9.0 02:03:45 10° NNW 02:08:35 22° NNE 02:13:20 10° ENE visible
11 Aug 7.2 03:46:55 10° NNW 03:53:15 58° NE 03:59:16 10° SE visible
11 Aug 6.5 20:12:29 10° SW 20:18:24 85° NW 20:24:48 10° NE visible
11 Aug 8.6 21:57:29 10° W 22:02:38 27° NNW 22:07:59 10° NNE visible
11 Aug 9.4 23:44:30 10° NW 23:48:09 16° N 23:51:50 10° NNE visible
12 Aug 9.1 01:29:32 10° NNW 01:34:00 19° NNE 01:38:24 10° ENE visible
12 Aug 7.7 03:12:47 10° NNW 03:18:56 46° NE 03:24:49 10° ESE visible
12 Aug 8.3 21:22:44 10° W 21:28:09 32° NW 21:33:51 10° NNE visible
12 Aug 9.3 23:09:38 10° NW 23:13:29 16° NNW 23:17:23 10° NNE visible
13 Aug 9.2 00:55:16 10° NNW 00:59:23 17° NNE 01:03:27 10° NE visible
13 Aug 8.0 02:38:39 10° NNW 02:44:33 37° NE 02:50:14 10° ESE visible
13 Aug 7.9 20:48:05 10° WSW 20:53:44 40° NW 20:59:42 10° NNE visible
13 Aug 9.2 22:34:42 10° WNW 22:38:50 18° NNW 22:43:03 10° NNE visible
14 Aug 9.3 00:20:54 10° NNW 00:24:44 16° N 00:28:32 10° NE visible
14 Aug 8.4 02:04:31 10° NNW 02:10:07 31° NE 02:15:33 10° E visible
14 Aug 6.4 03:47:43 10° NW 03:54:08 82° WSW 04:00:09 10° SSE visible
14 Aug 7.5 20:13:33 10° WSW 20:19:23 49° NW 20:25:35 10° NNE visible
14 Aug 9.1 21:59:45 10° WNW 22:04:13 20° NNW 22:08:47 10° NNE visible
14 Aug 9.3 23:46:25 10° NNW 23:50:03 15° N 23:53:41 10° NE visible
15 Aug 8.6 01:30:22 10° NNW 01:35:38 26° NNE 01:40:46 10° E visible
15 Aug 6.6 03:13:32 10° NW 03:19:57 78° NE 03:26:00 10° SE visible
15 Aug 7.1 19:39:09 10° SW 19:45:04 63° NW 19:51:26 10° NNE visible
15 Aug 8.9 21:24:51 10° WNW 21:29:39 23° NNW 21:34:36 10° NNE visible
15 Aug 9.3 23:11:48 10° NW 23:15:22 15° N 23:18:57 10° NE visible
16 Aug 8.8 00:56:12 10° NNW 01:01:07 22° NNE 01:05:54 10° ENE visible
16 Aug 7.0 02:39:22 10° NNW 02:45:43 61° NE 02:51:42 10° SE visible
16 Aug 8.7 20:50:00 10° W 20:55:08 26° NNW 21:00:26 10° NNE visible
16 Aug 9.3 22:37:03 10° NW 22:40:41 15° N 22:44:21 10° NNE visible
